CW5316 Weather Reports


Display with metric or nautical units.
time (UTC)temp
F
wind
direction
speed
MPH
gust
MPH
rain 1hr
in
rain 24hr
in
rain mn
in
humidity
%
barometer
mb
20260906223523 69 0 0.0 9.0 0.00 0.00 0.00 60 1015.3
20260906223052 67 98 1.0 9.0 0.00 0.00 0.00 58 1015.4
20260906222523 68 0 0.0 6.0 0.00 0.00 0.00 58 1015.4
20260906222023 67 0 1.0 6.0 0.00 0.00 0.00 60 1015.4
20260906221547 67 0 0.0 3.0 0.00 0.00 0.00 62 1015.4
20260906221021 67 0 0.0 6.0 0.00 0.00 0.00 60 1015.3
20260906220522 67 0 1.0 6.0 0.00 0.00 0.00 59 1015.3
20260906220046 67 0 0.0 6.0 0.00 0.00 0.00 59 1015.5
20260906215522 68 0 0.0 6.0 0.00 0.00 0.00 59 1015.3
20260906215024 68 111 0.0 6.0 0.00 0.00 0.00 60 1015.2
20260906214552 68 109 0.0 3.0 0.00 0.00 0.00 60 1015.3
20260906214020 67 0 0.0 4.0 0.00 0.00 0.00 61 1015.3
20260906213527 67 119 0.0 4.0 0.00 0.00 0.00 60 1015.3
20260906213052 67 0 0.0 4.0 0.00 0.00 0.00 60 1015.3
20260906212528 67 0 0.0 4.0 0.00 0.00 0.00 61 1015.4
20260906212023 67 240 0.0 4.0 0.00 0.00 0.00 61 1015.4
20260906211546 67 0 0.0 6.0 0.00 0.00 0.00 62 1015.3
20260906211020 66 0 1.0 7.0 0.00 0.00 0.00 61 1015.4
20260906210526 67 82 1.0 7.0 0.00 0.00 0.00 61 1015.3
20260906205534 68 0 0.0 4.0 0.00 0.00 0.00 61 1015.4
20260906205022 67 94 0.0 6.0 0.00 0.00 0.00 63 1015.3
20260906204551 66 106 2.0 8.0 0.00 0.00 0.00 61 1015.3
20260906204024 66 0 0.0 8.0 0.00 0.00 0.00 63 1015.5
20260906203525 65 127 2.0 8.0 0.00 0.00 0.00 63 1015.4
20260906203045 65 0 1.0 8.0 0.00 0.00 0.00 61 1015.4
20260906202524 66 107 0.0 3.0 0.00 0.00 0.00 62 1015.4
20260906202023 66 0 0.0 4.0 0.00 0.00 0.00 61 1015.5
20260906201559 66 0 0.0 4.0 0.00 0.00 0.00 60 1015.6
20260906201024 66 0 1.0 4.0 0.00 0.00 0.00 63 1015.6
20260906200524 65 0 0.0 3.0 0.00 0.00 0.00 64 1015.6
20260906200050 65 0 0.0 3.0 0.00 0.00 0.00 63 1015.6
20260906195523 66 0 0.0 8.0 0.00 0.00 0.00 63 1015.6
20260906195024 65 0 0.0 8.0 0.00 0.00 0.00 63 1015.6
20260906194546 65 153 0.0 8.0 0.00 0.00 0.00 62 1015.6
20260906194024 64 0 0.0 4.0 0.00 0.00 0.00 65 1015.7
20260906193523 64 105 0.0 4.0 0.00 0.00 0.00 65 1015.6
20260906193046 65 0 0.0 3.0 0.00 0.00 0.00 67 1015.7
20260906192523 64 0 0.0 4.0 0.00 0.00 0.00 67 1015.8
20260906192024 63 0 0.0 4.0 0.00 0.00 0.00 68 1015.7
20260906191545 64 0 0.0 3.0 0.00 0.00 0.00 68 1015.8
20260906191024 63 0 0.0 3.0 0.00 0.00 0.00 69 1015.9
20260906190523 63 0 0.0 3.0 0.00 0.00 0.00 70 1015.9
20260906190103 63 0 1.0 3.0 0.00 0.00 0.00 69 1016.0
20260906185522 62 243 0.0 4.0 0.00 0.00 0.00 72 1016.0
20260906185028 62 0 0.0 4.0 0.00 0.00 0.00 72 1016.1
20260906184551 61 300 1.0 4.0 0.00 0.00 0.00 72 1016.0
20260906184022 61 121 1.0 4.0 0.00 0.00 0.00 72 1016.1
20260906183524 61 76 1.0 4.0 0.00 0.00 0.00 72 1016.2
20260906183057 61 0 0.0 3.0 0.00 0.00 0.00 73 1016.3
20260906182523 61 0 0.0 4.0 0.00 0.00 0.00 74 1016.3
20260906182022 61 0 0.0 4.0 0.00 0.00 0.00 72 1016.4
20260906181545 61 0 1.0 4.0 0.00 0.00 0.00 73 1016.4
20260906181024 60 0 0.0 2.0 0.00 0.00 0.00 74 1016.4
20260906180524 60 0 0.0 2.0 0.00 0.00 0.00 73 1016.3
20260906180053 60 0 0.0 7.0 0.00 0.00 0.00 72 1016.3
20260906175525 59 0 1.0 7.0 0.00 0.00 0.00 72 1016.3
20260906175028 60 98 1.0 7.0 0.00 0.00 0.00 70 1016.2
20260906174546 60 73 0.0 3.0 0.00 0.00 0.00 70 1016.1
20260906174025 60 0 0.0 4.0 0.00 0.00 0.00 71 1016.0
20260906173522 59 68 0.0 6.0 0.00 0.00 0.00 71 1016.0
20260906173053 60 89 1.0 6.0 0.00 0.00 0.00 70 1016.1
20260906172524 59 0 1.0 5.0 0.00 0.00 0.00 72 1016.2
20260906172023 59 74 1.0 4.0 0.00 0.00 0.00 73 1016.1
20260906171546 59 0 0.0 3.0 0.00 0.00 0.00 75 1016.2
20260906171025 59 105 1.0 3.0 0.00 0.00 0.00 75 1016.4
20260906170524 58 0 0.0 3.0 0.00 0.00 0.00 78 1016.5
20260906170050 57 0 1.0 4.0 0.00 0.00 0.00 78 1016.5
20260906165523 56 120 2.0 4.0 0.00 0.00 0.00 78 1016.6
20260906165023 56 120 0.0 3.0 0.00 0.00 0.00 79 1016.5
20260906164546 56 0 0.0 3.0 0.00 0.00 0.00 79 1016.5
20260906164027 56 0 1.0 3.0 0.00 0.00 0.00 77 1016.5
20260906163524 56 107 0.0 3.0 0.00 0.00 0.00 79 1016.5
20260906163045 55 126 1.0 3.0 0.00 0.00 0.00 79 1016.5
20260906162522 55 0 0.0 3.0 0.00 0.00 0.00 81 1016.5
20260906162024 54 105 0.0 3.0 0.00 0.00 0.00 82 1016.5
20260906161546 54 0 0.0 3.0 0.00 0.00 0.00 83 1016.5
20260906161024 54 152 1.0 3.0 0.00 0.00 0.00 83 1016.5
20260906160523 54 110 1.0 3.0 0.00 0.00 0.00 83 1016.5
20260906160056 53 119 0.0 3.0 0.00 0.00 0.00 85 1016.5
20260906155525 53 109 1.0 3.0 0.00 0.00 0.00 85 1016.6
20260906155022 52 109 0.0 3.0 0.00 0.00 0.00 86 1016.4
20260906154548 52 113 1.0 3.0 0.00 0.00 0.00 87 1016.4
20260906154023 51 0 1.0 3.0 0.00 0.00 0.00 87 1016.4
20260906153522 51 105 1.0 3.0 0.00 0.00 0.00 87 1016.3
20260906153047 51 111 2.0 3.0 0.00 0.00 0.00 87 1016.4
20260906152523 51 117 1.0 3.0 0.00 0.00 0.00 86 1016.4
20260906152024 51 109 0.0 4.0 0.00 0.00 0.00 87 1016.3
20260906151544 51 0 0.0 4.0 0.00 0.00 0.00 87 1016.3
20260906151027 50 105 1.0 4.0 0.00 0.00 0.00 87 1016.3
20260906150526 50 103 0.0 3.0 0.00 0.00 0.00 88 1016.2
20260906150053 49 0 0.0 3.0 0.00 0.00 0.00 90 1016.3
20260906145525 48 0 0.0 3.0 0.00 0.00 0.00 92 1016.3
20260906145030 48 0 0.0 3.0 0.00 0.00 0.00 93 1016.3
20260906144547 47 0 0.0 1.0 0.00 0.00 0.00 92 1016.3
20260906144021 48 0 0.0 2.0 0.00 0.00 0.00 92 1016.4
20260906143523 48 0 0.0 2.0 0.00 0.00 0.00 92 1016.5
20260906143046 47 228 0.0 1.0 0.00 0.00 0.00 93 1016.6
20260906142521 47 0 0.0 1.0 0.00 0.00 0.00 93 1016.6
20260906142026 47 0 0.0 1.0 0.00 0.00 0.00 94 1016.7
20260906141545 46 0 0.0 0.0 0.00 0.00 0.00 93 1016.7
20260906141024 46 0 0.0 0.0 0.00 0.00 0.00 93 1016.5
20260906140523 46 0 0.0 1.0 0.00 0.00 0.00 93 1016.4
20260906140048 46 0 0.0 1.0 0.00 0.00 0.00 93 1016.5
20260906135524 46 0 0.0 0.0 0.00 0.00 0.00 92 1016.5
20260906135022 47 0 0.0 1.0 0.00 0.00 0.00 92 1016.5
20260906134549 47 0 0.0 1.0 0.00 0.00 0.00 91 1016.4
20260906134024 47 0 0.0 1.0 0.00 0.00 0.00 91 1016.4
20260906133522 48 0 0.0 0.0 0.00 0.00 0.00 91 1016.4
20260906133105 48 0 0.0 2.0 0.00 0.00 0.00 90 1016.5
20260906132523 48 0 0.0 2.0 0.00 0.00 0.00 90 1016.5
20260906132020 48 0 0.0 0.0 0.00 0.00 0.00 91 1016.5
20260906131549 48 0 0.0 2.0 0.00 0.00 0.00 90 1016.4
20260906131023 48 0 0.0 2.0 0.00 0.00 0.00 90 1016.5
20260906130523 48 228 0.0 1.0 0.00 0.00 0.00 90 1016.4
20260906130055 48 0 0.0 0.0 0.00 0.00 0.00 90 1016.4
20260906125526 48 0 0.0 0.0 0.00 0.00 0.00 90 1016.5
20260906125024 48 0 0.0 1.0 0.00 0.00 0.00 89 1016.5
20260906124552 49 0 0.0 1.0 0.00 0.00 0.00 89 1016.5
20260906124023 49 0 0.0 1.0 0.00 0.00 0.00 89 1016.5
20260906123522 49 0 0.0 1.0 0.00 0.00 0.00 89 1016.6
20260906123048 49 0 0.0 1.0 0.00 0.00 0.00 89 1016.6
20260906122523 48 0 0.0 0.0 0.00 0.00 0.00 90 1016.5
20260906122022 49 0 0.0 0.0 0.00 0.00 0.00 90 1016.5
20260906121546 48 0 0.0 0.0 0.00 0.00 0.00 90 1016.5
20260906121020 48 0 0.0 1.0 0.00 0.00 0.00 90 1016.5
20260906120524 49 0 0.0 1.0 0.00 0.00 0.00 90 1016.5
20260906120049 49 0 0.0 1.0 0.00 0.00 0.00 89 1016.5
20260906115523 49 0 0.0 1.0 0.00 0.00 0.00 89 1016.4
20260906115024 49 0 0.0 1.0 0.00 0.00 0.00 90 1016.4
20260906114550 49 0 0.0 1.0 0.00 0.00 0.00 90 1016.4
20260906114022 49 0 0.0 1.0 0.00 0.00 0.00 90 1016.5
20260906113519 49 0 0.0 2.0 0.00 0.00 0.00 89 1016.6
20260906113046 49 0 0.0 2.0 0.00 0.00 0.00 89 1016.6
20260906112525 49 0 0.0 2.0 0.00 0.00 0.00 89 1016.6
20260906112023 49 0 0.0 0.0 0.00 0.00 0.00 89 1016.6
20260906111553 49 0 0.0 0.0 0.00 0.00 0.00 89 1016.6
20260906111023 49 0 0.0 0.0 0.00 0.00 0.00 89 1016.6
20260906110524 49 0 0.0 0.0 0.00 0.00 0.00 89 1016.7
20260906110055 49 0 0.0 2.0 0.00 0.00 0.00 88 1016.5
20260906105526 50 0 0.0 2.0 0.00 0.00 0.00 87 1016.5
20260906105021 50 0 0.0 2.0 0.00 0.00 0.00 87 1016.5
20260906104553 50 242 0.0 2.0 0.00 0.00 0.00 87 1016.7
20260906104024 50 0 0.0 2.0 0.00 0.00 0.00 87 1016.6
20260906103524 50 0 0.0 1.0 0.00 0.00 0.00 87 1016.6
20260906103049 50 0 0.0 3.0 0.00 0.00 0.00 87 1016.7
20260906102524 51 0 0.0 4.0 0.00 0.00 0.00 86 1016.7
20260906102024 51 0 0.0 4.0 0.00 0.00 0.00 87 1016.7
20260906101548 50 0 0.0 1.0 0.00 0.00 0.00 87 1016.7
20260906101024 50 0 0.0 5.0 0.00 0.00 0.00 87 1016.6
20260906100528 51 0 0.0 5.0 0.00 0.00 0.00 87 1016.7
20260906100048 51 0 0.0 5.0 0.00 0.00 0.00 87 1016.7
20260906095524 50 0 0.0 1.0 0.00 0.00 0.00 87 1016.7
20260906095023 50 0 0.0 1.0 0.00 0.00 0.00 89 1016.6
20260906094605 50 0 0.0 1.0 0.00 0.00 0.00 88 1016.6
20260906094024 50 0 0.0 2.0 0.00 0.00 0.00 87 1016.6
20260906093524 50 0 0.0 3.0 0.00 0.00 0.00 87 1016.6
20260906093058 51 0 0.0 3.0 0.00 0.00 0.00 87 1016.5
20260906092525 50 0 0.0 2.0 0.00 0.00 0.00 88 1016.5
20260906092023 50 0 0.0 1.0 0.00 0.00 0.00 88 1016.6
20260906091544 50 0 0.0 3.0 0.00 0.00 0.00 88 1016.6
20260906091025 51 0 0.0 3.0 0.00 0.00 0.00 88 1016.6
20260906090525 50 196 0.0 2.0 0.00 0.00 0.00 88 1016.7
20260906090110 51 0 0.0 2.0 0.00 0.00 0.00 88 1016.6
20260906085524 51 0 0.0 2.0 0.00 0.00 0.00 88 1016.6
20260906085025 51 0 0.0 2.0 0.00 0.00 0.00 87 1016.7
20260906084554 51 0 0.0 3.0 0.00 0.00 0.00 87 1016.7
20260906084022 51 0 0.0 3.0 0.00 0.00 0.00 87 1016.7
20260906083526 51 192 0.0 3.0 0.00 0.00 0.00 87 1016.8
20260906083047 51 0 0.0 1.0 0.00 0.00 0.00 87 1016.7
20260906082523 52 0 0.0 2.0 0.00 0.00 0.00 86 1016.7
20260906082025 52 0 0.0 5.0 0.00 0.00 0.00 85 1016.7
20260906081547 52 0 0.0 5.0 0.00 0.00 0.00 85 1016.7
20260906081023 51 232 0.0 3.0 0.00 0.00 0.00 87 1016.7
20260906080526 51 0 0.0 3.0 0.00 0.00 0.00 88 1016.7
20260906080045 51 0 0.0 3.0 0.00 0.00 0.00 87 1016.7
20260906075525 51 0 0.0 2.0 0.00 0.00 0.00 87 1016.8
20260906075024 51 250 0.0 2.0 0.00 0.00 0.00 87 1016.8
20260906074551 51 0 0.0 2.0 0.00 0.00 0.00 87 1016.9
20260906074023 51 0 0.0 2.0 0.00 0.00 0.00 87 1017.0
20260906073524 52 0 0.0 3.0 0.00 0.00 0.00 87 1016.8
20260906073048 52 0 0.0 4.0 0.00 0.00 0.00 86 1017.0
20260906072524 52 0 0.0 4.0 0.00 0.00 0.00 86 1016.9
20260906072022 52 0 0.0 3.0 0.00 0.00 0.00 87 1017.0
20260906071548 52 0 0.0 1.0 0.00 0.00 0.00 87 1017.1
20260906071024 52 0 0.0 1.0 0.00 0.00 0.00 87 1017.1
20260906070525 52 0 0.0 2.0 0.00 0.00 0.00 87 1017.3
20260906070047 52 0 0.0 3.0 0.00 0.00 0.00 86 1017.2
20260906065527 52 193 0.0 3.0 0.00 0.00 0.00 86 1017.3
20260906065026 52 0 0.0 2.0 0.00 0.00 0.00 86 1017.3
20260906064556 53 0 0.0 4.0 0.00 0.00 0.00 85 1017.2
20260906064025 52 0 1.0 4.0 0.00 0.00 0.00 86 1017.2
20260906063526 52 258 0.0 2.0 0.00 0.00 0.00 87 1017.2
20260906063055 52 0 0.0 2.0 0.00 0.00 0.00 87 1017.3
20260906062524 52 0 0.0 2.0 0.00 0.00 0.00 88 1017.3
20260906062024 52 0 0.0 1.0 0.00 0.00 0.00 88 1017.3
20260906061556 52 0 0.0 0.0 0.00 0.00 0.00 88 1017.3
20260906061024 52 0 0.0 1.0 0.00 0.00 0.00 88 1017.2
20260906060523 52 0 0.0 1.0 0.00 0.00 0.00 88 1017.2
20260906060047 52 0 0.0 1.0 0.00 0.00 0.00 88 1017.3
20260906055523 53 0 0.0 1.0 0.00 0.00 0.00 87 1017.3
20260906055023 53 0 0.0 2.0 0.00 0.00 0.00 87 1017.4
20260906054547 53 0 0.0 2.0 0.00 0.00 0.00 86 1017.5
20260906054022 53 0 0.0 2.0 0.00 0.00 0.00 86 1017.5
20260906053525 54 0 0.0 3.0 0.00 0.00 0.00 86 1017.6
20260906053105 54 0 0.0 3.0 0.00 0.00 0.00 86 1017.7
20260906052524 53 0 0.0 2.0 0.00 0.00 0.00 87 1017.8
20260906052024 53 267 0.0 4.0 0.00 0.00 0.00 87 1017.8
20260906051546 53 0 0.0 4.0 0.00 0.00 0.00 87 1017.9
20260906051023 53 184 0.0 3.0 0.00 0.00 0.00 88 1017.9
20260906050519 53 190 0.0 1.0 0.00 0.00 0.00 88 1018.0
20260906050044 53 0 0.0 1.0 0.00 0.00 0.00 88 1018.0
20260906045525 53 0 0.0 0.0 0.00 0.00 0.00 87 1017.9
20260906045020 53 0 0.0 0.0 0.00 0.00 0.00 87 1017.9
20260906044540 54 0 0.0 0.0 0.00 0.00 0.00 86 1017.9
20260906044025 54 0 0.0 1.0 0.00 0.00 0.00 86 1017.9
20260906043523 55 0 0.0 1.0 0.00 0.00 0.00 85 1018.0
20260906043052 54 0 0.0 1.0 0.00 0.00 0.00 86 1018.0
20260906042522 54 0 0.0 1.0 0.00 0.00 0.00 87 1018.0
20260906042024 54 0 0.0 1.0 0.00 0.00 0.00 87 1018.1
20260906041554 54 0 0.0 1.0 0.00 0.00 0.00 88 1018.0
20260906041021 53 0 0.0 1.0 0.00 0.00 0.00 89 1018.0
20260906040520 53 0 0.0 1.0 0.00 0.00 0.00 90 1018.0
20260906040047 53 0 0.0 1.0 0.00 0.00 0.00 91 1017.9
20260906035527 53 0 0.0 1.0 0.00 0.00 0.00 91 1018.0
20260906035021 53 0 0.0 1.0 0.00 0.00 0.00 91 1018.0
20260906034545 53 0 0.0 1.0 0.00 0.00 0.00 92 1018.0
20260906034025 53 0 0.0 0.0 0.00 0.00 0.00 91 1017.9
20260906033522 53 0 0.0 0.0 0.00 0.00 0.00 91 1018.0
20260906033050 53 0 0.0 0.0 0.00 0.00 0.00 90 1017.9
20260906032522 53 0 0.0 0.0 0.00 0.00 0.00 90 1017.8
20260906032021 53 0 0.0 0.0 0.00 0.00 0.00 89 1017.7
20260906031545 54 0 0.0 0.0 0.00 0.00 0.00 89 1017.7
20260906031024 54 0 0.0 0.0 0.00 0.00 0.00 89 1017.6
20260906030523 54 0 0.0 0.0 0.00 0.00 0.00 88 1017.6
20260906030050 54 0 0.0 0.0 0.00 0.00 0.00 87 1017.6
20260906025524 55 0 0.0 0.0 0.00 0.00 0.00 87 1017.6
20260906025023 55 0 0.0 0.0 0.00 0.00 0.00 87 1017.6
20260906024609 55 0 0.0 0.0 0.00 0.00 0.00 86 1017.5
20260906024023 56 0 0.0 0.0 0.00 0.00 0.00 86 1017.5
20260906023523 56 0 0.0 0.0 0.00 0.00 0.00 85 1017.5
20260906023054 56 0 0.0 0.0 0.00 0.00 0.00 85 1017.5
20260906022522 56 0 0.0 0.0 0.00 0.00 0.00 85 1017.4
20260906022022 57 0 0.0 0.0 0.00 0.00 0.00 85 1017.3
20260906021546 57 0 0.0 0.0 0.00 0.00 0.00 85 1017.3
20260906021023 57 0 0.0 0.0 0.00 0.00 0.00 84 1017.3
20260906020523 57 0 0.0 0.0 0.00 0.00 0.00 85 1017.2
20260906020045 58 0 0.0 0.0 0.00 0.00 0.00 84 1017.2
20260906015523 58 0 0.0 0.0 0.00 0.00 0.00 83 1017.3
20260906015024 58 0 0.0 0.0 0.00 0.00 0.00 82 1017.3
20260906014553 58 0 0.0 0.0 0.00 0.00 0.00 81 1017.3
20260906014024 59 0 0.0 0.0 0.00 0.00 0.00 81 1017.3
20260906013529 59 0 0.0 0.0 0.00 0.00 0.00 79 1017.2
20260906013047 60 0 0.0 1.0 0.00 0.00 0.00 78 1017.1
20260906012523 61 0 0.0 1.0 0.00 0.00 0.00 77 1017.1
20260906012023 61 0 0.0 0.0 0.00 0.00 0.00 77 1017.1
20260906011556 61 0 0.0 0.0 0.00 0.00 0.00 76 1017.0
20260906011024 61 0 0.0 0.0 0.00 0.00 0.00 75 1017.0
20260906010524 62 0 0.0 0.0 0.00 0.00 0.00 74 1017.0
20260906010101 62 0 0.0 0.0 0.00 0.00 0.00 74 1017.0
20260906005523 62 0 0.0 0.0 0.00 0.01 0.00 72 1017.0
20260906005022 63 0 0.0 0.0 0.00 0.01 0.00 72 1016.9
20260906004548 63 0 0.0 2.0 0.00 0.01 0.00 71 1016.8
20260906004026 63 0 0.0 2.0 0.00 0.01 0.00 72 1016.9
20260906003525 64 0 0.0 2.0 0.00 0.01 0.00 69 1016.8
20260906003047 64 0 0.0 1.0 0.00 0.01 0.00 68 1016.7
20260906002523 64 0 0.0 1.0 0.00 0.01 0.00 70 1016.8
20260906002023 64 0 0.0 1.0 0.00 0.01 0.00 70 1016.7
20260906001600 64 0 0.0 1.0 0.00 0.01 0.00 71 1016.7
20260906001027 63 0 0.0 1.0 0.00 0.01 0.00 70 1016.7
20260906000524 64 0 0.0 1.0 0.00 0.01 0.00 70 1016.7
20260906000053 64 0 0.0 2.0 0.00 0.01 0.00 70 1016.7
20260905235522 64 0 0.0 6.0 0.00 0.01 0.00 68 1016.7
20260905235025 65 0 0.0 6.0 0.00 0.01 0.00 67 1016.6
20260905234548 65 244 1.0 6.0 0.00 0.01 0.00 67 1016.7
20260905234025 65 248 0.0 4.0 0.00 0.01 0.00 66 1016.5
20260905233524 66 269 0.0 4.0 0.00 0.01 0.00 66 1016.5
20260905233045 66 0 0.0 2.0 0.00 0.01 0.00 65 1016.5
20260905232527 66 275 0.0 2.0 0.00 0.01 0.00 65 1016.6
20260905232025 65 0 0.0 2.0 0.00 0.01 0.00 67 1016.5
20260905231555 65 0 0.0 4.0 0.00 0.01 0.00 68 1016.6
20260905231025 65 0 0.0 4.0 0.00 0.01 0.00 65 1016.7
20260905230523 66 329 0.0 2.0 0.00 0.01 0.00 67 1016.9
20260905230103 66 0 0.0 3.0 0.00 0.01 0.00 68 1016.9
20260905225522 66 0 0.0 3.0 0.00 0.01 0.00 68 1016.9
20260905225022 65 236 1.0 3.0 0.00 0.01 0.00 67 1017.0
20260905224550 64 0 0.0 0.0 0.00 0.01 0.00 69 1017.1
20260905224024 64 0 0.0 0.0 0.00 0.01 0.00 68 1017.1